Regional Weather Roundup
Issued by NWS Bismarck, ND

Home | Current Version | Previous Version | Text Only | Print | Product List | Glossary On
Versions: 1 2 3 4 5 6 7 8 9 10 11 12 13 14 15 16 17 18 19 20 21 22 23 24 25 26 27 28 29 30 31 32 33 34 35 36 37 38 39 40 41 42 43 44 45 46 47 48 49 50
000
ASUS43 KBIS 080110
RWRBIS

NWR BROADCAST TEXT
NATIONAL WEATHER SERVICE BISMARCK ND
700 PM CST WED DEC 07 2016

NOTE: "FAIR" INDICATES FEW OR NO CLOUDS BELOW 12,000 FEET WITH NO
SIGNIFICANT WEATHER AND/OR OBSTRUCTIONS TO VISIBILITY.


CITY           SKY/WX    TMP DP  RH WIND       PRES   REMARKS
WILLISTON      CLOUDY     3  -6  66 NW17      30.53R WCI -17
MINOT          LGT SNOW   5   0  79 W30       30.36R WCI -19
MINOT AFB      DRIZZLE    3   0  85 NW30G37   30.35R WCI -21
BISMARCK       CLOUDY     4  -2  76 NW20G31   30.41R WCI -17
DICKINSON      CLEAR     -2  -8  76 W25G37    30.39R WCI -27
GARRISON         N/A      3  -1  83 NW26G39   30.37R WCI -21
HETTINGER ARPT CLEAR      0  -7  72 NW22      30.42R WCI -23
JAMESTOWN      LGT SNOW   8   4  83 NW33G45   30.23R VSB 3/4 WCI -16
CARRINGTON     SNOW       7   3  85 NW33G44   30.26R VSB 1/2 WCI -18
HAZEN          LGT SNOW   3  -2  78 W18G28    30.45R WCI -17
RUGBY          LGT SNOW   7   5  92 NW23G29   30.29R VSB 3/4 WCI -14
STANLEY        LGT SNOW   3   0  85 NW25G33   30.41R WCI -20
TIOGA          CLOUDY     1   0  92 NW25      30.43R FOG     WCI -22
WATFORD CITY   CLOUDY     1  -4  78 NW15G22   30.51R WCI -18
$$

CITY           SKY/WX    TMP DP  RH WIND       PRES   REMARKS
GRAND FORKS    LGT SNOW  20  16  84 NW22      30.12R BLWGSNOWWCI   3
GRAND FORKS AF LGT SNOW  18  14  86 NW20      30.14R FOG     WCI   1
DEVILS LAKE    LGT SNOW  12   9  87 NW22      30.21R FOG     WCI  -7
FARGO          LGT SNOW  16  11  80 NW23      30.14R WCI  -2
CANDO          CLOUDY    14   9  79 NW24G31   30.26R WCI  -5
CAVALIER       LGT SNOW  19  18  93 NW21G35   30.16R VSB 3/4 WCI   3
GRAFTON        CLOUDY    21  19  93 NW24G31   30.15R FOG     WCI   4
GWINNER        CLOUDY    12  10  92 W25G35    30.22R WCI  -8
LANGDON        LGT SNOW  16  14  93 NW24G30   30.15R WCI  -3
ROLLA          LGT SNOW   9   9 100 NW32G41   30.22R VSB 3/4 WCI -15
WALHALLA         N/A     19  19 100 NW24G32   30.18R FOG     WCI   2
$$

CITY           SKY/WX    TMP DP  RH WIND       PRES   REMARKS
ABERDEEN       LGT SNOW   8   0  69 NW25G33   30.32R WCI -13
MOBRIDGE       MIX PCPN   6  -3  66 NW28G40   30.36R WCI -17
BUFFALO          N/A      2  -6  69 NW26      30.35R WCI -22
RAPID CITY     CLEAR      4  -6  63 N14       30.41R WCI -14
GLASGOW        MOCLDY     1  -8  66 NW15G25   30.57R WCI -18
SIDNEY         CLOUDY     3  -5  69 NW29G35   30.53R WCI -21
WOLF POINT     CLOUDY     4  -7  60 W14       30.60R WCI -14
GLENDIVE       CLOUDY     2  -4  76 NW14      30.53R WCI -16
MILES CITY     CLEAR      4  -6  63 NW12      30.56R WCI -12
BAKER          CLOUDY     2  -5  72 NW22      30.47R WCI -20
$$

CITY           SKY/WX    TMP DP  RH WIND       PRES   REMARKS
BILLINGS       PTCLDY     8  -2  63 E3        30.47R
GREAT FALLS    CLOUDY     0  -5  79 S3        30.50S
REGINA         FLURRIES   3  -2  78 NW18G25   30.51R WCI -17
ESTEVAN        LGT SNOW   3   0  85 NW26G33   30.44R BLWGSNOWWCI -20
$$




USA.gov is the U.S. government's official web portal to all federal, state and local government web resources and services.